TimeCDT,TemperatureF,Dew PointF,Humidity,Sea Level PressureIn,VisibilityMPH,Wind Direction,Wind SpeedMPH,Gust SpeedMPH,PrecipitationIn,Events,Conditions,WindDirDegrees,DateUTC
12:15 AM,57.2,57.2,100,29.73,10.0,SSW,11.5,-,N/A,,Overcast,210,2013-03-10 06:15:00
12:35 AM,55.4,55.4,100,29.72,10.0,WSW,9.2,-,N/A,,Overcast,250,2013-03-10 06:35:00
12:55 AM,57.2,57.2,100,29.70,10.0,SSW,10.4,-,N/A,,Mostly Cloudy,210,2013-03-10 06:55:00
1:15 AM,57.2,53.6,88,29.69,10.0,SW,9.2,-,N/A,,Overcast,220,2013-03-10 07:15:00
1:35 AM,55.4,51.8,88,29.68,10.0,SSW,8.1,-,N/A,,Overcast,200,2013-03-10 07:35:00
1:55 AM,57.2,50.0,77,29.68,10.0,South,9.2,16.1,N/A,,Overcast,180,2013-03-10 07:55:00
3:15 AM,57.2,46.4,67,29.68,10.0,South,19.6,26.5,N/A,Rain,Rain,180,2013-03-10 08:15:00
3:55 AM,57.2,44.6,63,29.65,10.0,South,9.2,17.3,N/A,Rain,Light Rain,190,2013-03-10 08:55:00
4:15 AM,55.4,44.6,67,29.66,10.0,WSW,8.1,-,N/A,,Overcast,240,2013-03-10 09:15:00
4:35 AM,51.8,46.4,82,29.66,10.0,North,-9999.0,-,N/A,,Overcast,0,2013-03-10 09:35:00
4:55 AM,48.2,44.6,87,29.71,10.0,North,-9999.0,-,N/A,,Mostly Cloudy,0,2013-03-10 09:55:00
5:15 AM,46.4,42.8,87,29.66,10.0,North,6.9,-,N/A,,Mostly Cloudy,10,2013-03-10 10:15:00
5:35 AM,46.4,42.8,87,29.75,10.0,WNW,12.7,-,N/A,,Scattered Clouds,300,2013-03-10 10:35:00
5:55 AM,44.6,42.8,93,29.69,10.0,NW,11.5,-,N/A,,Scattered Clouds,310,2013-03-10 10:55:00
6:15 AM,44.6,42.8,93,29.72,10.0,WNW,11.5,-,N/A,,Mostly Cloudy,290,2013-03-10 11:15:00
6:35 AM,44.6,42.8,93,29.72,10.0,NW,12.7,-,N/A,,Overcast,310,2013-03-10 11:35:00
6:55 AM,44.6,42.8,93,29.71,10.0,North,-9999.0,-,N/A,,Overcast,0,2013-03-10 11:55:00
7:35 AM,44.6,41.0,87,29.76,10.0,North,-9999.0,-,N/A,,Overcast,0,2013-03-10 12:35:00
7:55 AM,42.8,41.0,93,29.77,10.0,North,-9999.0,-,N/A,,Overcast,0,2013-03-10 12:55:00
8:15 AM,42.8,41.0,93,29.75,10.0,North,-9999.0,-,N/A,,Overcast,0,2013-03-10 13:15:00
8:35 AM,42.8,41.0,93,29.77,10.0,WNW,10.4,18.4,N/A,,Overcast,300,2013-03-10 13:35:00
8:55 AM,42.8,41.0,93,29.77,10.0,NW,11.5,-,N/A,,Overcast,310,2013-03-10 13:55:00
9:15 AM,42.8,41.0,93,29.78,10.0,North,-9999.0,-,N/A,,Overcast,0,2013-03-10 14:15:00
9:35 AM,41.0,41.0,100,29.80,7.0,WNW,17.3,-,N/A,,Overcast,300,2013-03-10 14:35:00
9:55 AM,41.0,41.0,100,29.82,4.0,WNW,16.1,-,N/A,,Light Drizzle,300,2013-03-10 14:55:00
10:15 AM,41.0,41.0,100,29.82,10.0,North,-9999.0,-,N/A,,Overcast,0,2013-03-10 15:15:00
10:35 AM,41.0,41.0,100,29.83,10.0,WNW,13.8,-,N/A,,Overcast,300,2013-03-10 15:35:00
10:55 AM,41.0,39.2,93,29.83,10.0,North,-9999.0,-,N/A,,Overcast,0,2013-03-10 15:55:00
11:15 AM,41.0,37.4,87,29.84,10.0,North,-9999.0,-,N/A,,Overcast,0,2013-03-10 16:15:00
11:35 AM,41.0,37.4,87,29.85,10.0,North,-9999.0,-,N/A,,Overcast,0,2013-03-10 16:35:00
11:55 AM,39.2,37.4,93,29.85,7.0,North,-9999.0,-,N/A,,Overcast,0,2013-03-10 16:55:00
12:15 PM,41.0,37.4,87,29.86,10.0,North,-9999.0,-,N/A,,Overcast,0,2013-03-10 17:15:00
12:35 PM,41.0,37.4,87,29.88,10.0,North,-9999.0,-,N/A,,Overcast,0,2013-03-10 17:35:00
12:55 PM,41.0,35.6,81,29.88,10.0,North,-9999.0,-,N/A,,Overcast,0,2013-03-10 17:55:00
1:15 PM,41.0,37.4,87,29.89,10.0,North,-9999.0,-,N/A,,Overcast,0,2013-03-10 18:15:00
1:35 PM,41.0,37.4,87,29.90,7.0,North,-9999.0,-,N/A,,Overcast,0,2013-03-10 18:35:00
1:55 PM,39.2,37.4,93,29.91,7.0,North,-9999.0,-,N/A,,Light Drizzle,0,2013-03-10 18:55:00
2:15 PM,39.2,35.6,87,29.91,10.0,North,-9999.0,-,N/A,,Overcast,0,2013-03-10 19:15:00
2:35 PM,39.2,33.8,81,29.92,10.0,North,-9999.0,-,N/A,,Overcast,0,2013-03-10 19:35:00
2:55 PM,39.2,33.8,81,29.93,10.0,North,-9999.0,-,N/A,,Overcast,0,2013-03-10 19:55:00
3:15 PM,39.2,33.8,81,29.94,10.0,North,-9999.0,-,N/A,,Overcast,0,2013-03-10 20:15:00
3:35 PM,39.2,33.8,81,29.94,10.0,North,-9999.0,-,N/A,,Overcast,0,2013-03-10 20:35:00
3:55 PM,41.0,32.0,70,29.94,10.0,North,-9999.0,-,N/A,,Overcast,0,2013-03-10 20:55:00
4:15 PM,39.2,32.0,75,29.95,10.0,North,-9999.0,-,N/A,,Overcast,0,2013-03-10 21:15:00
4:35 PM,39.2,32.0,75,29.95,10.0,North,-9999.0,-,N/A,,Overcast,0,2013-03-10 21:35:00
4:55 PM,39.2,32.0,75,29.96,10.0,North,-9999.0,-,N/A,,Overcast,0,2013-03-10 21:55:00
5:15 PM,37.4,32.0,81,29.97,10.0,North,-9999.0,-,N/A,,Overcast,0,2013-03-10 22:15:00
5:35 PM,37.4,32.0,81,29.97,10.0,North,-9999.0,-,N/A,,Overcast,0,2013-03-10 22:35:00
5:55 PM,37.4,32.0,81,29.98,10.0,North,-9999.0,-,N/A,,Overcast,0,2013-03-10 22:55:00
6:15 PM,37.4,32.0,81,29.99,10.0,North,-9999.0,-,N/A,,Overcast,0,2013-03-10 23:15:00
6:35 PM,37.4,32.0,81,29.99,10.0,North,-9999.0,-,N/A,,Overcast,0,2013-03-10 23:35:00
6:55 PM,35.6,32.0,87,30.00,10.0,North,-9999.0,-,N/A,,Overcast,0,2013-03-10 23:55:00
7:15 PM,35.6,32.0,87,30.01,10.0,North,-9999.0,-,N/A,,Overcast,0,2013-03-11 00:15:00
7:35 PM,35.6,30.2,81,30.01,10.0,North,-9999.0,-,N/A,,Overcast,0,2013-03-11 00:35:00
7:55 PM,35.6,30.2,81,30.02,10.0,North,-9999.0,-,N/A,,Overcast,0,2013-03-11 00:55:00
8:15 PM,35.6,30.2,81,30.02,10.0,NNW,12.7,-,N/A,,Overcast,330,2013-03-11 01:15:00
8:35 PM,35.6,30.2,81,30.03,10.0,North,-9999.0,-,N/A,,Overcast,0,2013-03-11 01:35:00
8:55 PM,35.6,30.2,81,30.04,10.0,NW,8.1,-,N/A,,Overcast,320,2013-03-11 01:55:00
9:15 PM,35.6,30.2,81,30.04,10.0,North,-9999.0,-,N/A,,Overcast,0,2013-03-11 02:15:00
9:35 PM,35.6,30.2,81,30.05,10.0,NW,11.5,-,N/A,,Overcast,320,2013-03-11 02:35:00
9:55 PM,35.6,30.2,81,30.05,10.0,North,-9999.0,-,N/A,,Overcast,0,2013-03-11 02:55:00
10:15 PM,35.6,30.2,81,30.06,10.0,NW,8.1,-,N/A,,Overcast,310,2013-03-11 03:15:00
10:35 PM,35.6,30.2,81,30.06,10.0,North,-9999.0,-,N/A,,Overcast,0,2013-03-11 03:35:00
10:55 PM,33.8,30.2,87,30.06,10.0,NW,10.4,-,N/A,,Mostly Cloudy,310,2013-03-11 03:55:00
11:15 PM,33.8,30.2,87,30.06,10.0,WNW,8.1,-,N/A,,Mostly Cloudy,300,2013-03-11 04:15:00
11:35 PM,33.8,32.0,93,30.06,10.0,NW,8.1,-,N/A,,Overcast,310,2013-03-11 04:35:00
12:15 AM,35.6,32.0,87,30.06,10.0,NW,8.1,-,N/A,,Overcast,320,2013-03-11 05:15:00
12:35 AM,35.6,32.0,87,30.05,10.0,NW,9.2,-,N/A,,Overcast,320,2013-03-11 05:35:00
12:55 AM,35.6,32.0,87,30.05,10.0,NW,6.9,-,N/A,,Overcast,310,2013-03-11 05:55:00